When you browse on this site, cookies collect data to enhance your experience and personalize the content and advertising you see.
Visit our Privacy Policy to learn more. By continuing to use the site, you agree to this use of cookies and data.

Hourly Weather Montreal

Today, 20 September, Sunday

Time Temperature Precipitation Wind Pressure Humidity
00:00 +7°C° 0 mm 1 mps 770 mmHg 66%
01:00 +6°C° 0 mm 2 mps 771 mmHg 67%
02:00 +7°C° 0 mm 1 mps 771 mmHg 69%
03:00 +6°C° 0 mm 1 mps 771 mmHg 71%
04:00 +6°C° 0 mm 1 mps 771 mmHg 73%
05:00 +6°C° 0 mm 1 mps 771 mmHg 72%
06:00 +6°C° 0 mm 1 mps 772 mmHg 71%
07:00 +7°C° 0 mm 1 mps 772 mmHg 70%
08:00 +8°C° 0 mm 1 mps 772 mmHg 64%
09:00 +10°C° 0 mm 1 mps 773 mmHg 58%
10:00 +12°C° 0 mm 1 mps 773 mmHg 53%
11:00 +13°C° 0 mm 1 mps 772 mmHg 49%
12:00 +14°C° 0 mm 1 mps 772 mmHg 45%
13:00 +15°C° 0 mm 1 mps 772 mmHg 41%
14:00 +15°C° 0 mm 1 mps 772 mmHg 41%
15:00 +15°C° 0 mm 1 mps 772 mmHg 42%
16:00 +15°C° 0 mm 1 mps 771 mmHg 43%
17:00 +13°C° 0 mm 1 mps 772 mmHg 49%
18:00 +11°C° 0 mm 1 mps 772 mmHg 55%
19:00 +10°C° 0 mm 1 mps 773 mmHg 60%
20:00 +9°C° 0 mm 1 mps 773 mmHg 62%
21:00 +9°C° 0 mm 1 mps 773 mmHg 65%
22:00 +8°C° 0 mm 1 mps 773 mmHg 67%
23:00 +8°C° 0 mm 1 mps 773 mmHg 68%

Tomorrow, 21 September, Monday

Time Temperature Precipitation Wind Pressure Humidity
00:00 +7°C° 0 mm 1 mps 773 mmHg 69%
01:00 +7°C° 0 mm 1 mps 774 mmHg 71%
02:00 +7°C° 0 mm 1 mps 774 mmHg 72%
03:00 +6°C° 0 mm 1 mps 773 mmHg 73%
04:00 +5°C° 0 mm 0 mps 773 mmHg 74%
05:00 +6°C° 0 mm 1 mps 774 mmHg 72%
06:00 +7°C° 0 mm 1 mps 774 mmHg 71%
07:00 +7°C° 0 mm 1 mps 774 mmHg 69%
08:00 +9°C° 0 mm 1 mps 774 mmHg 63%
09:00 +11°C° 0 mm 1 mps 773 mmHg 57%
10:00 +13°C° 0 mm 1 mps 773 mmHg 51%
11:00 +14°C° 0 mm 1 mps 772 mmHg 48%
12:00 +16°C° 0 mm 1 mps 772 mmHg 44%
13:00 +18°C° 0 mm 1 mps 771 mmHg 41%
14:00 +18°C° 0 mm 1 mps 771 mmHg 42%
15:00 +18°C° 0 mm 1 mps 770 mmHg 42%
16:00 +16°C° 0 mm 1 mps 769 mmHg 43%
17:00 +15°C° 0 mm 1 mps 769 mmHg 48%
18:00 +13°C° 0 mm 1 mps 769 mmHg 54%
19:00 +11°C° 0 mm 1 mps 770 mmHg 59%
20:00 +11°C° 0 mm 1 mps 769 mmHg 62%
21:00 +10°C° 0 mm 1 mps 769 mmHg 64%
22:00 +9°C° 0 mm 1 mps 769 mmHg 67%
23:00 +8°C° 0 mm 0 mps 769 mmHg 69%

Day after tomorrow, 22 September, Tuesday

Time Temperature Precipitation Wind Pressure Humidity
00:00 +7°C° 0 mm 0 mps 768 mmHg 70%
01:00 +7°C° 0 mm 0 mps 768 mmHg 72%
02:00 +7°C° 0 mm 0 mps 767 mmHg 73%
03:00 +7°C° 0 mm 0 mps 767 mmHg 73%
04:00 +7°C° 0 mm 1 mps 767 mmHg 74%
05:00 +7°C° 0 mm 0 mps 766 mmHg 73%
06:00 +7°C° 0 mm 0 mps 766 mmHg 71%
07:00 +8°C° 0 mm 0 mps 766 mmHg 70%
08:00 +10°C° 0 mm 0 mps 765 mmHg 64%
09:00 +12°C° 0 mm 0 mps 764 mmHg 58%
10:00 +15°C° 0 mm 1 mps 764 mmHg 52%
11:00 +16°C° 0 mm 1 mps 763 mmHg 50%
12:00 +18°C° 0 mm 1 mps 762 mmHg 48%
13:00 +18°C° 0 mm 2 mps 761 mmHg 46%
14:00 +18°C° 0 mm 2 mps 760 mmHg 49%
15:00 +18°C° 0 mm 2 mps 759 mmHg 51%
16:00 +18°C° 0 mm 3 mps 759 mmHg 53%
17:00 +17°C° 0 mm 2 mps 759 mmHg 58%
18:00 +15°C° 0 mm 2 mps 759 mmHg 63%
19:00 +14°C° 0 mm 2 mps 759 mmHg 68%
20:00 +13°C° 0 mm 2 mps 758 mmHg 70%
21:00 +13°C° 0 mm 2 mps 758 mmHg 71%
22:00 +13°C° 0 mm 2 mps 757 mmHg 73%
23:00 +11°C° 0 mm 3 mps 757 mmHg 75%

23 September, Wednesday

Time Temperature Precipitation Wind Pressure Humidity
00:00 +11°C° 0 mm 3 mps 756 mmHg 76%
01:00 +11°C° 0 mm 3 mps 756 mmHg 78%
02:00 +10°C° 0 mm 3 mps 756 mmHg 80%
03:00 +10°C° 0 mm 3 mps 755 mmHg 82%
04:00 +10°C° 0 mm 3 mps 755 mmHg 84%
05:00 +10°C° 0 mm 3 mps 755 mmHg 83%
06:00 +11°C° 0 mm 3 mps 755 mmHg 83%
07:00 +11°C° 0 mm 3 mps 755 mmHg 82%
08:00 +13°C° 0 mm 3 mps 755 mmHg 78%
09:00 +15°C° 0 mm 4 mps 755 mmHg 75%
10:00 +18°C° 0 mm 4 mps 754 mmHg 71%
11:00 +19°C° 0 mm 4 mps 754 mmHg 70%
12:00 +19°C° 0 mm 4 mps 754 mmHg 69%
13:00 +20°C° 0 mm 5 mps 753 mmHg 68%
14:00 +20°C° 0 mm 5 mps 753 mmHg 67%
15:00 +20°C° 0 mm 5 mps 753 mmHg 66%
16:00 +20°C° 0 mm 6 mps 753 mmHg 65%
17:00 +17°C° 0 mm 5 mps 754 mmHg 69%
18:00 +17°C° 0 mm 4 mps 754 mmHg 73%
19:00 +16°C° 0 mm 3 mps 754 mmHg 77%
20:00 +14°C° 0 mm 3 mps 754 mmHg 79%
21:00 +14°C° 0 mm 2 mps 754 mmHg 80%
22:00 +14°C° 0 mm 2 mps 755 mmHg 82%
23:00 +13°C° 0 mm 2 mps 755 mmHg 83%

24 September, Thursday

Time Temperature Precipitation Wind Pressure Humidity
00:00 +13°C° 0 mm 1 mps 754 mmHg 84%
01:00 +13°C° 0 mm 1 mps 754 mmHg 85%
02:00 +12°C° 0 mm 1 mps 754 mmHg 87%
03:00 +12°C° 0 mm 1 mps 754 mmHg 88%
04:00 +12°C° 0 mm 1 mps 754 mmHg 90%
05:00 +12°C° 0 mm 1 mps 754 mmHg 90%
06:00 +13°C° 0 mm 1 mps 754 mmHg 90%
07:00 +13°C° 0 mm 2 mps 754 mmHg 90%
08:00 +15°C° 0 mm 2 mps 754 mmHg 85%
09:00 +17°C° 0 mm 3 mps 753 mmHg 80%
10:00 +19°C° 0 mm 4 mps 753 mmHg 75%
11:00 +20°C° 0 mm 5 mps 752 mmHg 75%
12:00 +21°C° 0 mm 5 mps 752 mmHg 75%
13:00 +22°C° 0 mm 6 mps 751 mmHg 75%
14:00 +22°C° 0.1 mm 6 mps 751 mmHg 72%
15:00 +23°C° 0.1 mm 5 mps 752 mmHg 69%
16:00 +23°C° 0.1 mm 5 mps 752 mmHg 66%
17:00 +21°C° 0.1 mm 5 mps 753 mmHg 69%
18:00 +20°C° 0.1 mm 5 mps 753 mmHg 72%
19:00 +18°C° 0.1 mm 4 mps 754 mmHg 75%
20:00 +17°C° 0 mm 4 mps 755 mmHg 73%
21:00 +14°C° 0 mm 4 mps 756 mmHg 71%
22:00 +12°C° 0 mm 3 mps 757 mmHg 69%
23:00 +11°C° 0 mm 3 mps 758 mmHg 69%

25 September, Friday

Time Temperature Precipitation Wind Pressure Humidity
00:00 +10°C° 0 mm 3 mps 758 mmHg 70%
01:00 +9°C° 0 mm 3 mps 759 mmHg 70%
02:00 +8°C° 0 mm 3 mps 759 mmHg 71%
03:00 +7°C° 0 mm 3 mps 760 mmHg 72%
04:00 +5°C° 0 mm 3 mps 761 mmHg 73%
05:00 +5°C° 0 mm 3 mps 761 mmHg 72%
06:00 +5°C° 0 mm 3 mps 762 mmHg 70%
07:00 +5°C° 0 mm 3 mps 762 mmHg 69%
08:00 +7°C° 0 mm 3 mps 762 mmHg 63%
09:00 +9°C° 0 mm 3 mps 762 mmHg 57%
10:00 +10°C° 0 mm 3 mps 762 mmHg 51%
11:00 +12°C° 0 mm 3 mps 762 mmHg 47%
12:00 +13°C° 0 mm 3 mps 761 mmHg 43%
13:00 +16°C° 0 mm 3 mps 761 mmHg 40%
14:00 +16°C° 0 mm 3 mps 761 mmHg 43%
15:00 +14°C° 0 mm 3 mps 761 mmHg 46%
16:00 +14°C° 0 mm 3 mps 760 mmHg 49%
17:00 +14°C° 0 mm 2 mps 761 mmHg 52%
18:00 +13°C° 0 mm 2 mps 761 mmHg 56%
19:00 +12°C° 0 mm 2 mps 761 mmHg 60%
20:00 +12°C° 0 mm 2 mps 761 mmHg 61%
21:00 +12°C° 0 mm 2 mps 761 mmHg 61%
22:00 +10°C° 0 mm 2 mps 760 mmHg 61%
23:00 +12°C° 0 mm 2 mps 760 mmHg 62%
Show more